Location: B?ogocice
(50.2413°N, 20.2361°E)
Time: 04:18:55
(UTC+00:00)

ALOS - Pass Details

Date: 25 September 2024
Orbit: 670 x 673 km, 98.0° (Epoch: 04 October)

Event Time Altitude Azimuth Distance (km) Brightness Sun altitude
Rises 02:05:41 0° 9° (N) 3,030 6.1 -23.1°
Reaches altitude 10° 02:07:59 10° 4° (N) 2,112 5.2 -22.7°
Enters shadow 02:12:18 47° 296° (WNW) 887 2.5 -22.1°
